Regional Weather Roundup
Issued by NWS Charleston, WV

Home | Current Version | Previous Version | Graphics & Text | Print | Product List | Glossary On
Versions: 1 2 3 4 5 6 7 8 9 10 11 12 13 14 15 16 17 18 19 20 21 22 23 24 25 26 27 28 29 30 31 32 33 34 35 36 37 38 39 40 41 42 43 44 45 46 47 48 49 50
000
ASUS41 KRLX 121810
RWRRLX
West Virginia Regional Weather Roundup
National Weather Service Charleston WV
100 PM EST FRI FEB 12 2016

Note: "fair" indicates few or no clouds below 12,000 feet with no
significant weather and/or obstructions to visibility.

WVZ003-121900-
Northern Panhandle of West Virginia

CITY           SKY/WX    TMP DP  RH WIND       PRES   REMARKS
WHEELING       CLOUDY    19   7  59 SW8       30.05F WCI   9
$$

WVZ009-121900-
Northwest West Virginia

CITY           SKY/WX    TMP DP  RH WIND       PRES   REMARKS
PARKERSBURG    FLURRIES  24  10  55 W6        30.12F
$$

WVZ006-121900-
Western West Virginia

CITY           SKY/WX    TMP DP  RH WIND       PRES   REMARKS
HUNTINGTON     CLOUDY    29  10  45 W7        30.10F
$$

WVZ015-121900-
West Central West Virginia

CITY           SKY/WX    TMP DP  RH WIND       PRES   REMARKS
CHARLESTON     CLOUDY    27  10  49 W5        30.07F
$$

WVZ022-031-121900-
North Central West Virginia

CITY           SKY/WX    TMP DP  RH WIND       PRES   REMARKS
CLARKSBURG     CLOUDY    23   8  52 N5        30.06F
MORGANTOWN     CLOUDY    20   7  57 VRB5      30.07F HAZE
$$

WVZ025-035-042-045-121900-
Southern West Virginia

CITY           SKY/WX    TMP DP  RH WIND       PRES   REMARKS
BECKLEY        LGT SNOW  27  16  63 W8        29.97F
LOGAN          CLOUDY    28  14  54 SW7       30.04F
BLUEFIELD      LGT SNOW  26  23  88 SW5       29.96F FOG
LEWISBURG      CLOUDY    29  14  55 W6        29.99F
$$

WVZ047-121900-
Northern Mountains of West Virginia

CITY           SKY/WX    TMP DP  RH WIND       PRES   REMARKS
ELKINS         FLURRIES  25  12  58 CALM      29.99F
$$

WVZ052-121900-
Eastern Panhandle of West Virginia

CITY           SKY/WX    TMP DP  RH WIND       PRES   REMARKS
MARTINSBURG    CLOUDY    29   6  38 S13       30.09F
PETERSBURG     CLOUDY    29   9  41 CALM      30.04F
$$



USA.gov is the U.S. government's official web portal to all federal, state and local government web resources and services.